Location: Woodhurst
(52.3667°N, 0.0667°W)
Time: 18:08:33
(UTC+00:00)

Helios 1B rocket - Pass Details

Date: 19 May 2025
Orbit: 497 x 502 km, 98.2° (Epoch: 22 June)

Event Time Altitude Azimuth Distance (km) Brightness Sun altitude
Rises 20:52:42 0° 195° (SSW) 2,576 5.4 -7.4°
Maximum altitude 20:58:04 24° 265° (W) 1,073 4.3 -7.9°
Drops below altitude 10° 21:01:06 10° 321° (NW) 1,715 6.6 -8.2°
Sets 21:03:30 0° 335° (NNW) 2,606 7.5 -8.5°
